Tracking 18840 objects as of 18-November-2017
HD Live streaming from Space Station
objects crossing your sky now

SL-3 R/B

Track SL-3 R/B now!
10-day predictions
SL-3 R/B is classified as:


NORAD ID: 13403
Int'l Code: 1982-079B
Perigee: 529.4 km
Apogee: 577.3 km
Inclination: 81.2 °
Period: 95.6 minutes
Semi major axis: 6924 km
RCS: 6.1935 m2 (large)
Launch date: August 5, 1982
Source: Commonwealth of Independent States (former USSR) (CIS)
Launch site: PLESETSK MISSILE AND SPACE COMPLEX (PKMTR)

Note: This is a ROCKET BODY
aabbcc
Your satellite tracking list
Your tracking list is empty




NASA's NSSDC Master Catalog

Two Line Element Set (TLE):
1 13403U 82079B   17321.93546197 +.00000279 +00000-0 +16916-4 0  9990
2 13403 081.1700 093.2311 0034608 130.8235 229.5999 15.06725223919650
Source of the keplerian elements: AFSPC